Regional Weather Roundup
Issued by NWS

Home | Current Version | Previous Version | Graphics & Text | Print | Product List | Glossary On
Versions: 1 2 3 4 5 6 7 8 9 10 11 12 13 14 15 16 17 18 19 20 21 22 23 24 25 26 27
000
ASUS45 KTFX 270510
RWRMT
MONTANA REGIONAL WEATHER ROUNDUP
NATIONAL WEATHER SERVICE GREAT FALLS MT
1100 PM MDT FRI AUG 26 2016

NOTE: "FAIR" INDICATES FEW OR NO CLOUDS BELOW 12000 FEET WITH NO
SIGNIFICANT WEATHER AND/OR OBSTRUCTIONS TO VISIBILITY.

MTZ001>007-043-270600-
WEST OF THE DIVIDE

CITY           SKY/WX    TMP DP  RH WIND       PRES   REMARKS
KALISPELL      MOCLDY    54  44  69 NE5       29.88F
MISSOULA       MOCLDY    62  39  42 MISG      29.94S
BUTTE          CLOUDY    53  30  41 S6        30.06S
MULLAN PASS    MOCLDY    59  30  33 VRB3      30.05F
DEER LODGE       N/A     52  34  50 W5        30.03F
EUREKA           N/A     70  41  35 S3        29.85S
HAMILTON         N/A     57  39  51 S5        29.97S
LIBBY            N/A     66  37  34 S3        29.86F
PLAINS           N/A     60  41  49 MISG      29.90F
RONAN            N/A     54  45  71 CALM      29.97S
$$

MTZ008-052>055-270600-
SOUTHWEST MONTANA

CITY           SKY/WX    TMP DP  RH WIND       PRES   REMARKS
BOZEMAN        CLEAR     52  38  58 SE6       30.01R
DILLON         CLEAR     55  28  35 S3        30.02R
W YELLOWSTONE  CLEAR     48  28  46 CALM      30.12R
ENNIS          CLEAR     48  27  43 CALM      30.08S
THREE FORKS      N/A     50  17  27 CALM      29.99S
TWIN BRIDGES     N/A     56  32  40 SE5       30.01R
$$

MTZ009-010-012-014-046-048-049-054-270600-
EAST SLOPES AND CENTRAL MONTANA

CITY           SKY/WX    TMP DP  RH WIND       PRES   REMARKS
CUT BANK       PTCLDY    55  39  54 SE8       29.90F
GREAT FALLS    CLEAR     58  39  49 SE9       29.94F
MALMSTROM AFB  CLEAR     57  43  60 MISG      29.93F
HELENA         CLEAR     60  35  39 CALM      29.95F
CHOTEAU          N/A     57  39  51 CALM      29.95F
CONRAD           N/A     56  45  66 SE5       29.95F
$$

MTZ011-013-016-021-045-047-050-051-270600-
NORTH CENTRAL MONTANA

CITY           SKY/WX    TMP DP  RH WIND       PRES   REMARKS
HAVRE          CLEAR     55  44  66 E5        29.90F
LEWISTOWN      MOCLDY    54  45  71 SE6       29.99F
N BAR RANCH    MOCLDY    50  43  76 SW6       30.04S
CHINOOK          N/A     55  45  67 E3        29.91F
$$

MTZ017>020-022>027-061-062-270600-
NORTHEAST MONTANA

CITY           SKY/WX    TMP DP  RH WIND       PRES   REMARKS
GLASGOW        CLEAR     50  43  77 VRB3      29.94S
JORDAN           N/A     48  45  89 NW3       29.97S
SIDNEY         CLOUDY    53  44  71 N3        29.95F
WOLF POINT     PTCLDY    55  45  68 CALM      29.95S
POPLAR           N/A     55  46  71 CALM      29.96R
SCOBEY           N/A     45  37  73 CALM      29.94S
$$

MTZ028>42-056>058-270600-
SOUTHCENTRAL AND SOUTHEAST MONTANA

CITY           SKY/WX    TMP DP  RH WIND       PRES   REMARKS
BAKER          PTCLDY    57  45  64 CALM      30.02R
BILLINGS       PTCLDY    59  40  49 NE8       29.99S
LIVINGSTON     CLEAR     56  39  53 SE8       30.01S
MILES CITY     CLOUDY    63  43  48 E7        29.98R
EKALAKA          N/A     53  46  77 SE9       29.99S
FORSYTH          N/A     61  43  51 E3        29.97S
LAUREL           N/A     58  38  47 N2        29.98S
ROUNDUP          N/A     57  39  51 CALM      29.91F
$$

REGIONAL REPORTS...DAKOTAS

CITY           SKY/WX    TMP DP  RH WIND       PRES   REMARKS
WILLISTON      PTCLDY    54  45  71 W3        29.95S
MINOT          PTCLDY    62  52  69 SW3       29.92F
DICKINSON      PTCLDY    51  47  86 S8        29.97F
CROSBY           N/A     50  50 100 S7        29.96R
WATFORD CITY     N/A     55  52  88 SW3       29.95F
BISMARCK       CLEAR     55  53  93 SE8       30.00F
GRAND FORKS    CLEAR     56  51  84 S8        30.01R
FARGO          CLOUDY    63  55  75 S5        30.04S
BUFFALO SD       N/A     56  50  80 S7        29.95F
RAPID CITY     CLOUDY    58  56  93 CALM      30.04F
$$

REGIONAL REPORTS...WYOMING/IDAHO/WASHINGTON

CITY           SKY/WX    TMP DP  RH WIND       PRES   REMARKS
GILLETTE       CLOUDY    53  47  79 SE8       30.05F
SHERIDAN       PTCLDY    55  45  68 CALM      30.02F
BUFFALO WY     CLOUDY    56  39  53 SE7       30.09S
CODY           MOCLDY    54  43  66 S6        30.06S
YELLOWSTONE LA   N/A     42  32  67 NW3       30.20S
IDAHO FALLS    CLEAR     59  32  36 SW8       30.02S
SALMON         CLOUDY    55  37  50 CALM      29.97R
BOISE          PTCLDY    68  33  27 S3        29.91F
SPOKANE        CLOUDY    75  37  25 SW9       29.84F
$$

REGIONAL REPORTS...ALBERTA

CITY           SKY/WX    TMP DP  RH WIND       PRES   REMARKS
EDMONTON       LGT RAIN  61  52  72 S5        29.73F
CALGARY        CLOUDY    61  46  59 S8        29.79F
LETHBRIDGE     MOCLDY    54  45  71 S15       29.81F
MEDICINE HAT   PTCLDY    55  46  71 E5        29.84F
WATERTON GATE    N/A     63  41  45 SW13G24     N/A
MILK RIVER       N/A     50  39  66 S5          N/A
ONEFOUR          N/A     50  41  71 E9          N/A
$$

REGIONAL REPORTS...SASKATCHEWAN

CITY           SKY/WX    TMP DP  RH WIND       PRES   REMARKS
SWIFT CURRENT  CLEAR     46  45  93 S9        29.90F
REGINA         CLEAR     48  46  93 W7        29.90S
SASKATOON      CLEAR     52  52 100 S5        29.88S
CYPRESS HILLS    N/A     48  43  81 SE7         N/A
VAL MARIE        N/A     41  37  87 N2          N/A
$$




USA.gov is the U.S. government's official web portal to all federal, state and local government web resources and services.